Home > Time Zones > World Clock > Weather > U.S.A. > Nome > Past weeks

Flag for U.S.A. Weather past 2 weeks in Nome, Alaska, U.S.A.

Now
51 °F

Low clouds.


Feels Like: 47 °F
Forecast: 47 / 51 °F
Wind: 12 mph from West

Location: Nome Airport

Current Time: Jul 30, 2015 at 9:50:24 PM

Latest Report: Jul 30, 2015 at 8:53 PM


Visibility: 10 mi

Pressure: 30.09 "Hg

Humidity: 89%

Dew point: 48 °F

Location of NomeLocation

Historic Weather in Nome — Graph

°F

Nome temperature yesterday

Maximum temperature yesterday: 60 °F (at 10:53 AM)
Minimum temperature yesterday: 48 °F (at 6:53 AM)
Average temperature yesterday: 54 °F

Past Weeks' High & Low Weather Summary

 TemperatureHumidityPressure
High68 °F (Jul 17, 3:53 PM)100% (Jul 18, 4:53 AM)30.29 "Hg (Jul 18, 4:53 AM)
Low42 °F (Jul 27, 7:53 AM)41% (Jul 26, 7:53 PM)29.39 "Hg (Jul 17, 6:53 AM)
Average54 °F85%29.83 "Hg
* Reported Jul 15 8:53 PM — Jul 30 8:53 PM, Nome, Weather by CustomWeather, © 2015

Note: Actual official high and low records may vary slightly from our data, if they occured in-between our weather recording intervals... More about our weather records

Advertising

Nome weather history for previous 24 hours

 ConditionsComfort  
Time TempWeatherWind HumidityBarometerVisibility
8:53 PM
Thu, Jul 30
51 °FLow clouds.12 mph89%30.09 "Hg10 mi
7:53 PM54 °FSunny.13 mph80%30.10 "Hg10 mi
6:53 PM55 °FSunny.14 mph83%30.09 "Hg10 mi
5:53 PM57 °FSunny.14 mph74%30.09 "Hg10 mi
4:53 PM58 °FSunny.14 mph72%30.09 "Hg10 mi
3:53 PM58 °FSunny.14 mph67%30.08 "Hg10 mi
2:53 PM59 °FPassing clouds.13 mph78%30.08 "Hg10 mi
1:53 PM57 °FScattered clouds.12 mph83%30.08 "Hg10 mi
12:53 PM57 °FScattered clouds.7 mph83%30.07 "Hg10 mi
11:53 AM56 °FScattered clouds.6 mph90%30.03 "Hg10 mi
10:53 AM56 °FScattered clouds.5 mph90%30.02 "Hg10 mi
9:53 AM55 °FScattered clouds.6 mph90%30.01 "Hg10 mi
8:53 AM55 °FScattered clouds.5 mph80%29.99 "Hg10 mi
7:53 AM52 °FScattered clouds.No wind93%30.00 "Hg10 mi
6:53 AM47 °FScattered clouds.No wind93%30.00 "Hg10 mi
5:53 AM47 °FLight fog.No wind97%29.98 "Hg10 mi
4:53 AM46 °FClear.3 mph93%29.98 "Hg10 mi
3:53 AM47 °FLight fog.No wind97%29.97 "Hg10 mi
2:53 AM48 °FLight fog.No wind96%29.96 "Hg10 mi
1:53 AM50 °FScattered clouds.No wind96%29.96 "Hg10 mi
12:53 AM52 °FSunny.5 mph97%29.95 "Hg10 mi
11:53 PM
Wed, Jul 29
55 °FSunny.3 mph93%29.96 "Hg10 mi
10:53 PM54 °FScattered clouds.3 mph100%29.96 "Hg10 mi
10:00 PM53 °FLow clouds.3 mph100%29.95 "Hg1 mi
Weather by CustomWeather, © 2015

See weather overviewHow to use our weather pages